Content
SEND FEEDBACK

Daily
Averages
Monthly
Summary
United States of America

MAUD, TEXAS


Home > North America > United States > Texas
Elevation: 280 feet     Latitude: 33 19N     Longitude: 094 21W

WEATHER
 
SELECT A DAY
Number of Records: 202,118;   Date Range: 1/1/95 - 9/18/14
 
SHARE

PRINT THIS DATA

[ ← Previous Day ]
WEATHER ALMANAC - FEBRUARY 13, 2013
[ Next Day → ]
[ °C ]   °F
Weather ElementAverageHighLow
Temperature42.6 °F51.1 °F (3:53 pm)37.4 °F (6:24 am)
Dewpoint38 °F42.8 °F (12:48 am)35.1 °F (4:53 pm)
Humidity85 %100 % (12:48 am)56 % (3:53 pm)
Barometer30.02 in30.12 in (10:53 am)29.93 in (12:48 am)
Wind Speed8 mph12.7 mph (4:13 am)
Weather ElementAverage
Visibility9.3 mi
Wind DirectionWNW (283.9 °)

Weather ElementTotal
Precipitation---
Heating Degree Days20.8 (Base 65)
Averaged from 36 records on February 13, 2013
WEATHER CONDITIONS BREAKOUT
WIND DIRECTION BREAKOUT
WEATHER BY HOUR - FEBRUARY 13, 2013
[ °C ]   °F
Local TimeTemperatureDewpointHumidityBarometerVisibilityWind DirectionWind SpeedGust SpeedPrecipitationEventsConditions
12:48 AM42.8 °F42.8 °F100 %29.93 in3.0 miNW (310°)8.1 mphOvercast
12:53 AM42.1 °F42.1 °F100 %29.94 in4.0 miNW (310°)9.2 mphOvercast
1:03 AM42.8 °F42.8 °F100 %29.93 in2.5 miNW (310°)8.1 mphOvercast
1:14 AM42.8 °F42.8 °F100 %29.93 in4.0 miNW (310°)9.2 mphOvercast
1:53 AM42.1 °F41.0 °F96 %29.94 in10.0 miNW (310°)9.2 mphOvercast
2:53 AM42.1 °F41.0 °F96 %29.95 in10.0 miWNW (300°)8.1 mphOvercast
3:07 AM42.8 °F39.2 °F87 %29.94 in10.0 miNW (320°)10.4 mphOvercast
3:34 AM41.0 °F39.2 °F93 %29.96 in10.0 miNW (320°)8.1 mphMostly Cloudy
3:44 AM39.2 °F39.2 °F100 %29.96 in10.0 miWNW (300°)5.8 mphScattered Clouds
3:53 AM39.9 °F39.0 °F97 %29.97 in10.0 miWNW (300°)9.2 mphPartly Cloudy
4:13 AM39.2 °F39.2 °F100 %29.97 in10.0 miWNW (300°)12.7 mphMostly Cloudy
4:53 AM39.9 °F37.9 °F93 %29.99 in10.0 miWNW (300°)9.2 mphMostly Cloudy
5:53 AM39.9 °F37.0 °F89 %30.02 in10.0 miNNW (330°)4.6 mphOvercast
6:24 AM37.4 °F35.6 °F93 %30.03 in10.0 miNW (320°)4.6 mphScattered Clouds
6:31 AM39.2 °F37.4 °F93 %30.03 in10.0 miNW (310°)4.6 mphMostly Cloudy
6:53 AM39.0 °F37.0 °F93 %30.03 in10.0 miWNW (290°)8.1 mphMostly Cloudy
7:04 AM39.2 °F37.4 °F93 %30.03 in10.0 miWNW (290°)5.8 mphScattered Clouds
7:14 AM39.2 °F37.4 °F93 %30.04 in10.0 miWNW (290°)10.4 mphPartly Cloudy
7:53 AM39.9 °F37.0 °F89 %30.06 in10.0 miWNW (290°)9.2 mphClear
8:53 AM42.1 °F37.9 °F85 %30.09 in10.0 miNW (310°)10.4 mphPartly Cloudy
9:17 AM42.8 °F37.4 °F81 %30.10 in10.0 miNW (320°)12.7 mphMostly Cloudy
9:53 AM44.1 °F37.9 °F79 %30.10 in10.0 miNNW (330°)8.1 mphOvercast
10:53 AM44.1 °F37.9 °F79 %30.12 in10.0 miWNW (300°)11.5 mphOvercast
11:53 AM45.0 °F37.0 °F74 %30.11 in10.0 miNNW (330°)8.1 mphOvercast
12:53 PM46.0 °F37.0 °F71 %30.08 in10.0 miWest (280°)5.8 mphOvercast
1:53 PM50.0 °F39.0 °F66 %30.06 in10.0 miWest (260°)9.2 mphMostly Cloudy
2:53 PM50.0 °F36.0 °F59 %30.04 in10.0 miWest (260°)8.1 mphScattered Clouds
3:53 PM51.1 °F36.0 °F56 %30.04 in10.0 miWNW (300°)8.1 mphPartly Cloudy
4:53 PM50.0 °F35.1 °F57 %30.03 in10.0 miSW (230°)8.1 mphClear
5:53 PM48.0 °F35.1 °F61 %30.04 in10.0 miSW (230°)5.8 mphClear
6:53 PM44.1 °F37.0 °F76 %30.04 in10.0 miSSW (200°)5.8 mphClear
7:53 PM42.1 °F36.0 °F79 %30.05 in10.0 miSW (220°)4.6 mphClear
8:53 PM42.1 °F36.0 °F79 %30.06 in10.0 miSW (220°)6.9 mphClear
9:53 PM42.1 °F36.0 °F79 %30.06 in10.0 miSSW (200°)8.1 mphClear
10:53 PM39.9 °F36.0 °F86 %30.06 in10.0 miSSW (210°)6.9 mphClear
11:53 PM39.0 °F36.0 °F89 %30.07 in10.0 miSSW (210°)5.8 mphClear
Hourly data recorded from KTXK, located miles away from Maud, Texas







STORIES FROM OUR PARTNERS